Location: Chiroubles
(46.1812°N, 4.6660°E)
Time: 03:36:03
(UTC+00:00)

Cosmos 2208 Rocket - Pass Details

Date: 15 August 2020
Orbit: 755 x 805 km, 74.0° (Epoch: 27 September)

Event Time Altitude Azimuth Distance (km) Brightness Sun altitude
Rises 21:17:03 0° 337° (NNW) 3,254 8.6 -21.4°
Reaches altitude 10° 21:19:27 10° 336° (NNW) 2,316 7.6 -21.7°
Maximum altitude 21:24:41 77° 251° (WSW) 785 4.0 -22.3°
Enters shadow 21:26:02 50° 177° (S) 964 4.1 -22.4°
